Weather in Sault Ste. Marie

Canada     46°31′04″N   84°20′52″W
temp.,
°C
wind,
m/s
gust,
m/s
humid.,
%
clouds,
%
prec.,
mm/h
press.,
hPa
HPBL,
m
24 january, mon
mon2401:00−19sse1198100 0.4 10109
04:00−19se1199100 0.0 10089
07:00−15w1598100 0.3 1007186
10:00−13sw1293100 0.3 1006251
13:00−10w1285100 0.3 1005569
16:00−10nw378877 0.1 1006768
19:00−13nnw4128611 0.1 1009462
22:00−19n39915 0.0 1012177
25 january, tue
tue2501:00−24n26945 0.0 101590
04:00−29nne23955 0.0 101848
07:00−32nne119733 0.0 102116
10:00−26nne019054 0.0 102380
13:00−18nw128373 0.0 1023386
16:00−16wnw238494 0.0 1023548
19:00−26n11989 0.0 10269
22:00−24nne259696 0.0 102867
26 january, wed
wed2601:00−28nne259747 0.0 103059
04:00−34nne21985 0.0 103210
07:00−35ne11995 0.0 10349
10:00−26se23925 0.0 1032110
13:00−15s3790100 0.0 1028570
16:00−11s41192100 0.1 1024922
19:00−10s51492100 0.4 10211126
22:00−9ssw61691100 0.4 10171175
27 january, thu
thu2701:00−6sw81974100 0.6 10141170
04:00−6sw71783100 0.1 10121014
07:00−6sw61494100 1.1 1011961
10:00−5wsw51295100 2.1 1011809
13:00−4wsw4793100 3.4 1010660
16:00−3wsw3796100 0.8 1011607
19:00−13nnw5128783 1.1 1018470
22:00−19n411835 0.0 1024418
28 january, fri
fri2801:00−24nnw25883 0.0 1028100
04:00−32nnw22975 0.0 103016
07:00−35n219910 0.0 103310
10:00−25ne12865 0.0 1032100
13:00−17w01735 0.0 1029330
16:00−15ssw11765 0.0 1028293
19:00−25e119520 0.0 10299
22:00−23ese1297100 0.0 102834